Regional Weather Roundup
Issued by NWS

Home | Current Version | Previous Version | Text Only | Print | Product List | Glossary Off
Versions: 1 2 3 4 5 6 7 8 9 10 11 12 13 14 15 16 17 18 19 20 21 22 23 24 25 26 27 28 29 30 31 32 33 34 35 36 37 38 39 40 41 42 43 44 45 46 47 48 49 50

000
ASUS45 KSLC 220110
RWRUT

UTAH REGIONAL WEATHER ROUNDUP
NATIONAL WEATHER SERVICE SALT LAKE CITY UT
700 PM MDT TUE OCT 21 2014

UTZ001>011-023>025-220200-

NORTHERN UTAH

CITY           SKY/WX    TMP DP  RH WIND       PRES   REMARKS
BRIGHAM CITY   MOCLDY    55  29  37 NW7       30.04R
HILL AFB       CLOUDY    54  27  35 NW2       30.04R
LOGAN          PTCLDY    48  36  63 N9        30.04R
OGDEN          MOCLDY    54  29  38 NW8       30.03R
PROVO AIRPORT  MOCLDY    61  32  33 NW13      30.01R
SALT LAKE CITY CLOUDY    58  22  24 NW8       30.02S
VERNAL         CLOUDY    55  44  66 E3        29.96R
WENDOVER       CLEAR     57  18  21 N14       30.02R
HEBER CITY     CLOUDY    52  36  54 CALM      30.02R
WEST JORDAN    MOCLDY    54  34  47 NW5       30.05R

$$

UTZ012>022-026-027-220200-

SOUTHERN/CENTRAL UTAH

CITY           SKY/WX    TMP DP  RH WIND       PRES   REMARKS
BLANDING       CLEAR     59  41  51 SE5       30.09S
BRYCE CANYON   MOCLDY    50  36  58 SW8       30.10R
CEDAR CITY     CLOUDY    62  35  36 SW8       29.99R
DELTA          MOCLDY    59  32  36 NE10      29.99R
HANKSVILLE       N/A     72  32  23 S13G18    29.89S
MILFORD        MOCLDY    62  35  36 N26G35    29.96R
MOAB/CYNLANDS  CLEAR     70  32  24 S13       29.87S
PRICE          MOCLDY    55  48  77 N6        29.95R
ST GEORGE      CLOUDY    79  39  24 W8        29.87R

$$

REGIONAL REPORTS     COLORADO/ARIZONA

CITY           SKY/WX    TMP DP  RH WIND       PRES   REMARKS
CRAIG, CO      MOCLDY    56  41  57 CALM      30.00R
GRAND JUNCTION MOCLDY    55  45  68 E13       29.96S
RIFLE          LGT RAIN  57  45  64 W12       30.00R
MONTROSE       MOCLDY    58  44  60 SE8       30.03S
CORTEZ         PTCLDY    56  42  59 S7        30.05R
PAGE, AZ       PTCLDY    72  35  25 NE3       29.91S
GRAND CANYON   PTCLDY    56  35  45 SW5       30.08S
KINGMAN        MOCLDY    73  43  33 SW10      29.91R
FLAGSTAFF      PTCLDY    56  37  49 SW5       30.12R

$$

REGIONAL REPORTS    NEVADA/IDAHO/WYOMING

CITY           SKY/WX    TMP DP  RH WIND       PRES   REMARKS
LAS VEGAS, NV  MOCLDY    81  19  10 SW14      29.77R
ELY            PTCLDY    52  10  18 N8        30.05R
ELKO           PTCLDY    51  18  27 NW6       30.06S
POCATELLO, ID  MOCLDY    49  35  58 W22       30.07R
BURLEY         PTCLDY    46  36  68 W6        30.08R
EVANSTON, WY   CLOUDY    46  21  37 W12       30.08R
ROCK SPRINGS   CLOUDY    49  36  61 NW14      30.04R
KEMMERER       PTCLDY    41  28  60 W12G23    30.06R

$$



USA.gov is the U.S. government's official web portal to all federal, state and local government web resources and services.